Lid_Strength_Index
5 5 6 9 10 8 10 10 13 9 9 7 6 6 6 5 5 4 3 3 3 2 2 1 1 1 1 1 1 0 0 0
6 5 6 7 7 11 10 14 14 11 11 10 8 7 6 6 5 4 4 3 3 2 2 1 1 1 0 0 1 0 0 0
6 7 8 8 9 8 8 10 13 12 11 7 7 7 7 6 5 4 4 3 3 2 2 1 1 1 1 1 0 0 0 -0
7 5 5 6 7 7 10 11 10 11 10 6 6 6 6 6 5 4 3 3 3 2 2 2 1 1 1 0 1 0 -0 -0
8 7 6 7 6 6 7 8 10 12 10 6 6 6 5 6 5 4 4 3 3 3 3 2 2 2 1 1 1 0 0 0
10 8 7 8 7 6 7 9 9 9 8 8 7 6 6 5 5 4 4 3 3 3 2 2 2 2 2 1 1 1 0 1
7 6 6 7 7 7 8 7 9 8 8 7 6 6 5 5 5 5 4 4 3 3 3 2 2 2 1 1 1 1 1 1
8 6 7 7 7 7 7 7 7 7 8 5 5 5 5 5 5 5 4 4 3 3 3 3 2 2 2 1 1 1 1 1
9 7 7 9 7 7 6 6 6 8 7 5 6 6 5 5 5 5 4 4 3 3 3 2 2 2 2 1 1 1 1 1
9 9 12 7 5 5 6 6 5 5 5 6 5 5 4 4 4 4 3 3 3 3 2 2 1 1 1 1 1 1 1 1
10 10 8 7 6 6 7 7 5 5 5 5 4 4 5 3 3 3 3 3 2 2 2 1 1 1 1 1 1 1 2 1
9 11 12 7 5 4 5 9 4 4 5 6 5 9 7 4 3 3 2 2 2 2 2 2 1 1 1 2 2 2 1 1
9 10 8 5 5 5 10 7 5 5 5 5 6 5 4 3 3 2 2 2 1 1 2 1 1 1 1 1 2 1 0 0
9 10 11 4 5 7 5 4 4 4 4 5 4 4 4 3 3 3 2 2 1 2 2 1 1 1 1 2 1 0 0 0
7 8 4 4 4 4 3 4 4 4 4 4 4 4 4 4 3 3 2 2 1 2 2 1 1 1 2 1 0 0 1 1
6 5 5 4 3 3 3 4 3 3 4 3 4 4 4 3 3 3 2 2 2 2 2 2 1 1 1 1 0 0 1 1
6 5 5 4 3 3 3 3 3 3 3 3 3 4 3 3 3 2 2 2 2 2 2 2 1 1 0 0 0 1 1 1
7 4 5 4 3 3 4 4 3 3 3 3 3 3 3 3 2 2 2 2 2 2 2 1 1 1 0 0 0 1 1 1
4 3 4 3 3 3 3 3 3 3 3 3 3 3 3 3 2 3 2 2 2 2 1 1 1 1 0 0 0 1 1 0